Powrót do katalogu

COSMOS 1392

AktywnyMilitariaLEO
NORAD 13379·PAYLOAD·🇷🇺 Russia

Wystrzelony Jul 21, 1982 z Plesetsk Cosmodrome

Loading…

Następne Przeloty (najbliższe 24 godziny)

TLE

ŚwieżeSource: Space-Track

Epoka: Sep 14, 2026, 07:40 UTC

1 13379U 82073E   26257.32003568 -.00000021  00000-0 -32686-4 0  9996
2 13379  74.0130 224.8990 0008910  46.4706  23.6817 12.49390598699752

Śledź COSMOS 1392 w czasie rzeczywistym z AllMySat

Download on the App Store